STARLINK-35372

Last updated on Tue Dec 16 2025 00:02:05 GMT+0000 (Coordinated Universal Time)

1 66476U 25262W 25349.33335648 -.00005379 00000+0 -12159-3 0 9990 2 66476 43.0011 56.0620 0001369 247.7634 154.6557 15.40702608 5956
UTC large
Height (km)
Speed (km/s)
/
Latitude / Longitude
Inclination (degrees)
Orbital Period (minutes)
Azimuth
Elevation
Range (km)
Doppler Factor

Next 0 passes for location: London (51.5072 / 0.1276)

Sorry there are no passes over London.